Buffalo, NY

6:02 PM EDT on August 20, 2017 (GMT -0400)
Buffalo Niagara International

Weather History for KBUF - September, 2012

Change the Weather History Date:

Saturday, September 22, 2012

  Actual Average Record
Temperature  
Mean Temperature 57 °F 60 °F  
Max Temperature 62 °F 69 °F 89 °F (1965)
Min Temperature 51 °F 51 °F 37 °F (1963)
Degree Days  
Heating Degree Days 8 6  
Month to date heating degree days 51 75  
Since 1 July heating degree days 52 102  
Cooling Degree Days 0 1  
Month to date cooling degree days 78 47  
Year to date cooling degree days 871 534  
Growing Degree Days 7 (Base 50)    
Moisture  
Dew Point 50 °F    
Average Humidity 69    
Maximum Humidity 93    
Minimum Humidity 44    
Precipitation  
Precipitation 0.91 in 0.14 in 1.55 in (1885)
Month to date precipitation 4.25 2.77  
Year to date precipitation 20.99 27.93  
Snow  
Snow 0.00 in 0.00 in 0.00 in ()
Month to date snowfall 0.0 0.0  
Since 1 July snowfall 0.0 0.0  
Since 1 September snowfall 0.0 0.0  
Snow Depth 0.00 in    
Sea Level Pressure  
Sea Level Pressure 29.75 in    
Wind  
Wind Speed 8 mph (West)    
Max Wind Speed 20 mph    
Max Gust Speed 26 mph    
Visibility 7 miles    
Events Rain    
T = Trace of Precipitation, MM = Missing Value Source: NWS Daily Summary

Daily Weather History Graph

Daily Weather History Graph

Search for Another Location

Airport or City:

Trip Planner

Search our weather history database for the weather conditions in past years. The results will help you decide how hot, cold, wet, or windy it might be!

Date:

Astronomy

Sep. 22, 2012 Rise Set
Actual Time 7:02 AM EDT 7:11 PM EDT
Civil Twilight 6:34 AM EDT 7:39 PM EDT
Nautical Twilight 6:01 AM EDT 8:12 PM EDT
Astronomical Twilight 5:27 AM EDT 8:46 PM EDT
Moon 2:27 PM EDT (9/22) No Moon Set
Length of Visible Light 13h 05m
Length of Day
12h 08m
Waxing Crescent, 48% of the Moon is Illuminated
Sep 22
Waxing Crescent
Sep 22
First Quarter
Sep 29
Full
Oct 8
Last Quarter
Oct 15
New

Hourly Weather History & Observations

Time (EDT) Temp. Dew Point Humidity Pressure Visibility Wind Dir Wind Speed Gust Speed Precip Events Conditions
12:54 AM 57.9 °F 52.0 °F 81% 29.79 in 9.0 mi ENE 5.8 mph - 0.00 in Rain Light Rain
1:54 AM 57.9 °F 54.0 °F 87% 29.76 in 8.0 mi SE 4.6 mph - 0.02 in Rain Light Rain
2:41 AM 57.2 °F 53.6 °F 88% 29.73 in 1.5 mi NW 4.6 mph - 0.11 in Rain Heavy Rain
2:46 AM 57.2 °F 53.6 °F 88% 29.74 in 1.8 mi West 9.2 mph - 0.16 in Rain Heavy Rain
2:54 AM 55.9 °F 53.1 °F 90% 29.73 in 1.8 mi WNW 8.1 mph - 0.21 in Rain Heavy Rain
3:14 AM 55.4 °F 53.6 °F 94% 29.69 in 2.0 mi North 9.2 mph - 0.13 in Rain Heavy Rain
3:36 AM 55.4 °F 53.6 °F 94% 29.68 in 3.0 mi NNE 6.9 mph - 0.24 in Rain Light Rain
3:54 AM 55.0 °F 53.1 °F 93% 29.64 in 4.0 mi NE 9.2 mph - 0.28 in Rain Light Rain
4:04 AM 55.4 °F 53.6 °F 94% 29.63 in 5.0 mi North 6.9 mph - 0.01 in Rain Light Rain
4:15 AM 55.4 °F 53.6 °F 94% 29.65 in 4.0 mi North 5.8 mph - 0.04 in Rain Light Rain
4:27 AM 55.4 °F 53.6 °F 94% 29.67 in 1.5 mi NW 11.5 mph 21.9 mph 0.07 in Rain Heavy Rain
4:45 AM 55.4 °F 53.6 °F 94% 29.67 in 2.5 mi NW 11.5 mph - 0.20 in Rain Heavy Rain
4:52 AM 55.4 °F 53.6 °F 94% 29.66 in 3.0 mi NW 9.2 mph - 0.22 in Rain Light Rain
4:54 AM 55.0 °F 53.1 °F 93% 29.66 in 3.0 mi NNW 9.2 mph - 0.22 in Rain Rain
5:29 AM 55.4 °F 53.6 °F 94% 29.68 in 4.0 mi NW 6.9 mph - 0.05 in Rain Rain
5:35 AM 55.4 °F 53.6 °F 94% 29.69 in 5.0 mi NW 6.9 mph - 0.07 in Rain Light Rain
5:54 AM 55.0 °F 53.1 °F 93% 29.68 in 8.0 mi Calm Calm - 0.07 in Rain Light Rain
6:03 AM 55.4 °F 53.6 °F 94% 29.68 in 10.0 mi WNW 3.5 mph - 0.00 in Rain Light Rain
6:18 AM 55.4 °F 51.8 °F 88% 29.69 in 10.0 mi WSW 3.5 mph - 0.00 in Rain Light Rain
6:43 AM 55.4 °F 51.8 °F 88% 29.71 in 10.0 mi SW 3.5 mph - 0.01 in Rain Light Rain
6:54 AM 55.0 °F 53.1 °F 93% 29.72 in 9.0 mi SSW 5.8 mph - 0.01 in Rain Light Rain
7:40 AM 55.4 °F 53.6 °F 94% 29.73 in 9.0 mi SW 5.8 mph - 0.00 in   Overcast
7:54 AM 55.0 °F 53.1 °F 93% 29.73 in 10.0 mi SSW 3.5 mph - 0.00 in   Overcast
8:10 AM 55.4 °F 53.6 °F 94% 29.72 in 10.0 mi SSW 3.5 mph - 0.00 in Rain Light Rain
8:54 AM 55.9 °F 53.1 °F 90% 29.73 in 8.0 mi West 3.5 mph - 0.00 in Rain Light Rain
9:01 AM 55.4 °F 51.8 °F 88% 29.74 in 6.0 mi West 9.2 mph - 0.00 in Rain Light Rain
9:07 AM 55.4 °F 51.8 °F 88% 29.75 in 1.0 mi West 12.7 mph 19.6 mph 0.01 in Rain Heavy Rain
9:16 AM 55.4 °F 51.8 °F 88% 29.75 in 6.0 mi West 11.5 mph 19.6 mph 0.07 in Rain Light Rain
9:27 AM 55.4 °F 51.8 °F 88% 29.75 in 9.0 mi West 6.9 mph - 0.07 in Rain Light Rain
9:54 AM 55.9 °F 52.0 °F 87% 29.75 in 10.0 mi SW 4.6 mph - 0.07 in   Overcast
10:54 AM 55.9 °F 51.1 °F 84% 29.77 in 10.0 mi WSW 13.8 mph - 0.01 in   Overcast
11:54 AM 55.9 °F 48.9 °F 77% 29.78 in 10.0 mi West 10.4 mph - 0.00 in   Overcast
12:54 PM 55.9 °F 48.9 °F 77% 29.79 in 10.0 mi WSW 9.2 mph - 0.00 in Rain Light Rain
1:54 PM 57.0 °F 51.1 °F 81% 29.79 in 10.0 mi WSW 6.9 mph - 0.01 in Rain Light Rain
2:54 PM 59.0 °F 48.9 °F 69% 29.80 in 10.0 mi SW 12.7 mph - 0.00 in   Mostly Cloudy
3:54 PM 60.1 °F 46.9 °F 62% 29.80 in 10.0 mi SSW 12.7 mph - N/A   Mostly Cloudy
4:54 PM 57.9 °F 52.0 °F 81% 29.80 in 10.0 mi SSW 9.2 mph - N/A   Mostly Cloudy
5:54 PM 61.0 °F 39.9 °F 46% 29.80 in 10.0 mi WSW 15.0 mph - N/A   Scattered Clouds
6:54 PM 59.0 °F 37.9 °F 46% 29.83 in 10.0 mi West 8.1 mph - N/A   Mostly Cloudy
7:54 PM 57.0 °F 37.9 °F 49% 29.86 in 10.0 mi WNW 11.5 mph - N/A   Scattered Clouds
8:54 PM 55.0 °F 39.0 °F 55% 29.91 in 10.0 mi West 17.3 mph 26.5 mph 0.00 in Rain Light Rain
9:54 PM 52.0 °F 42.1 °F 69% 29.93 in 10.0 mi SSW 5.8 mph - 0.01 in   Overcast
10:54 PM 53.1 °F 43.0 °F 69% 29.93 in 10.0 mi West 6.9 mph - 0.00 in   Overcast
11:54 PM 52.0 °F 41.0 °F 66% 29.96 in 10.0 mi West 8.1 mph - N/A   Scattered Clouds